Knoxville, IA

11:06 PM CDT on August 31, 2016 (GMT -0500)
Knoxville Municipal

Weather History for KOXV - November, 2014

Change the Weather History Date:

Sunday, November 23, 2014

  Actual Average Record
Temperature  
Mean Temperature 44 °F -  
Max Temperature 53 °F 44 °F 67 °F (1966)
Min Temperature 33 °F 27 °F 4 °F (1950)
Degree Days  
Heating Degree Days 21    
Moisture  
Dew Point 47 °F    
Average Humidity 92    
Maximum Humidity 100    
Minimum Humidity 81    
Precipitation  
Precipitation 0.38 in - - ()
Sea Level Pressure  
Sea Level Pressure 29.44 in    
Wind  
Wind Speed 12 mph (SW)    
Max Wind Speed 30 mph    
Max Gust Speed 46 mph    
Visibility 6 miles    
Events Rain , Snow    
Averages and records for this station are not official NWS values.
T = Trace of Precipitation, MM = Missing Value Source: NWS Daily Summary

Daily Weather History Graph

Daily Weather History Graph

Search for Another Location

Airport or City:

Trip Planner

Search our weather history database for the weather conditions in past years. The results will help you decide how hot, cold, wet, or windy it might be!

Date:

Astronomy

Nov. 23, 2014 Rise Set
Actual Time 7:10 AM CST 4:47 PM CST
Civil Twilight 6:39 AM CST 5:17 PM CST
Nautical Twilight 6:05 AM CST 5:51 PM CST
Astronomical Twilight 5:32 AM CST 6:24 PM CST
Moon 8:06 AM CST (11/23) 6:11 PM CST (11/23)
Length of Visible Light 10h 37m
Length of Day
9h 37m
New Moon, 2% of the Moon is Illuminated
Nov 23
New Moon
Nov 29
First Quarter
Dec 6
Full
Dec 14
Last Quarter
Dec 21
New

Hourly Weather History & Observations

Time (CST) Temp. Windchill Dew Point Humidity Pressure Visibility Wind Dir Wind Speed Gust Speed Precip Events Conditions
12:15 AM 53.6 °F - 50.0 °F 88% 29.65 in 10.0 mi SSW 13.8 mph 20.7 mph N/A   Overcast
12:35 AM 53.6 °F - 50.0 °F 88% 29.64 in 10.0 mi SSW 12.7 mph 19.6 mph N/A   Overcast
12:55 AM 53.6 °F - 50.0 °F 88% 29.63 in 10.0 mi SSW 12.7 mph - N/A   Overcast
1:15 AM 53.6 °F - 50.0 °F 88% 29.62 in 10.0 mi SSW 11.5 mph - N/A   Overcast
1:35 AM 53.6 °F - 50.0 °F 88% 29.62 in 10.0 mi SSW 13.8 mph - N/A   Overcast
1:55 AM 53.6 °F - 50.0 °F 88% 29.61 in 10.0 mi South 13.8 mph - N/A   Overcast
2:15 AM 53.6 °F - 50.0 °F 88% 29.61 in 10.0 mi South 10.4 mph - N/A   Overcast
2:35 AM 53.6 °F - 50.0 °F 88% 29.61 in 10.0 mi SSW 13.8 mph 19.6 mph N/A   Overcast
2:55 AM 53.6 °F - 50.0 °F 88% 29.60 in 10.0 mi South 12.7 mph 20.7 mph N/A   Overcast
3:15 AM 53.6 °F - 50.0 °F 88% 29.59 in 10.0 mi South 11.5 mph 19.6 mph N/A   Overcast
3:35 AM 53.6 °F - 50.0 °F 88% 29.58 in 10.0 mi South 11.5 mph - N/A   Overcast
3:55 AM 53.6 °F - 50.0 °F 88% 29.58 in 10.0 mi South 15.0 mph - N/A   Overcast
4:15 AM 53.6 °F - 50.0 °F 88% 29.57 in 10.0 mi South 11.5 mph 18.4 mph N/A   Overcast
4:55 AM 53.6 °F - 50.0 °F 88% 29.56 in 10.0 mi South 10.4 mph 17.3 mph N/A   Overcast
5:15 AM 51.8 °F - 50.0 °F 94% 29.55 in 10.0 mi South 12.7 mph - N/A   Overcast
5:35 AM 51.8 °F - 50.0 °F 94% 29.56 in 10.0 mi South 11.5 mph - N/A   Overcast
5:55 AM 51.8 °F - 50.0 °F 94% 29.55 in 9.0 mi South 12.7 mph - N/A   Overcast
6:15 AM 51.8 °F - 50.0 °F 94% 29.55 in 10.0 mi South 11.5 mph - N/A   Overcast
6:35 AM 51.8 °F - 50.0 °F 94% 29.56 in 10.0 mi South 9.2 mph - N/A   Overcast
6:55 AM 51.8 °F - 50.0 °F 94% 29.55 in 5.0 mi South 9.2 mph - N/A Rain Light Rain
7:15 AM 51.8 °F - 50.0 °F 94% 29.55 in 5.0 mi South 10.4 mph - N/A   Overcast
7:35 AM 51.8 °F - 50.0 °F 94% 29.54 in 4.0 mi South 8.1 mph - N/A   Overcast
7:55 AM 51.8 °F - 50.0 °F 94% 29.54 in 3.0 mi South 6.9 mph - 0.05 in Rain Light Rain
8:15 AM 51.8 °F - 50.0 °F 94% 29.53 in 4.0 mi SSE 8.1 mph - N/A Rain Light Rain
8:35 AM 51.8 °F - 50.0 °F 94% 29.51 in 3.0 mi SSE 9.2 mph - N/A   Overcast
8:55 AM 51.8 °F - 50.0 °F 94% 29.51 in 3.0 mi SSE 10.4 mph - 0.01 in   Overcast
9:15 AM 51.8 °F - 50.0 °F 94% 29.50 in 1.2 mi SSE 12.7 mph - N/A   Overcast
9:35 AM 51.8 °F - 50.0 °F 94% 29.49 in 1.8 mi SSE 9.2 mph - N/A   Overcast
9:55 AM 51.8 °F - 50.0 °F 94% 29.49 in 2.5 mi SSE 6.9 mph - 0.02 in   Overcast
10:15 AM 51.8 °F - 50.0 °F 94% 29.48 in 2.0 mi SSE 6.9 mph - N/A   Overcast
10:35 AM 51.8 °F - 50.0 °F 94% 29.47 in 1.0 mi SSE 8.1 mph - N/A Rain Rain
10:55 AM 51.8 °F - 50.0 °F 94% 29.46 in 1.2 mi SSE 8.1 mph - 0.12 in Rain Light Rain
11:15 AM 51.8 °F - 51.8 °F 100% 29.44 in 1.2 mi SSE 5.8 mph - N/A   Overcast
11:35 AM 51.8 °F - 51.8 °F 100% 29.43 in 1.2 mi SSE 4.6 mph - N/A   Overcast
11:55 AM 51.8 °F - 50.0 °F 94% 29.41 in 1.0 mi SSE 5.8 mph - 0.03 in   Overcast
12:15 PM 51.8 °F - 51.8 °F 100% 29.39 in 1.5 mi SE 3.5 mph - N/A Rain Light Rain
12:35 PM 51.8 °F - 51.8 °F 100% 29.38 in 1.5 mi South 4.6 mph - N/A Rain Light Rain
12:55 PM 51.8 °F - 51.8 °F 100% 29.37 in 1.5 mi Calm Calm - 0.08 in Rain Light Rain
1:15 PM 51.8 °F - 51.8 °F 100% 29.36 in 1.5 mi South 4.6 mph - N/A Rain Light Rain
1:35 PM 53.6 °F - 51.8 °F 94% 29.35 in 6.0 mi Calm Calm - N/A   Overcast
1:55 PM 53.6 °F - 51.8 °F 94% 29.34 in 9.0 mi SSW 3.5 mph - 0.04 in   Overcast
2:15 PM 53.6 °F - 51.8 °F 94% 29.34 in 10.0 mi SW 3.5 mph - N/A   Overcast
2:35 PM 53.6 °F - 51.8 °F 94% 29.32 in 10.0 mi Calm Calm - N/A   Overcast
2:55 PM 53.6 °F - 51.8 °F 94% 29.32 in 4.0 mi WSW 3.5 mph - 0.01 in   Overcast
3:15 PM 51.8 °F - 51.8 °F 100% 29.33 in 10.0 mi West 4.6 mph - N/A   Overcast
3:35 PM 51.8 °F - 51.8 °F 100% 29.32 in 2.0 mi West 3.5 mph - N/A   Overcast
3:55 PM 51.8 °F - 51.8 °F 100% 29.32 in 2.0 mi West 5.8 mph - N/A   Overcast
4:15 PM 51.8 °F - 51.8 °F 100% 29.32 in 3.0 mi West 6.9 mph - N/A   Overcast
4:35 PM 51.8 °F - 51.8 °F 100% 29.32 in 7.0 mi WNW 9.2 mph - N/A   Overcast
4:55 PM 50.0 °F - 48.2 °F 94% 29.32 in 4.0 mi NW 17.3 mph - N/A   Overcast
5:15 PM 48.2 °F - 46.4 °F 93% 29.32 in 3.0 mi NW 18.4 mph - N/A   Overcast
5:35 PM 48.2 °F - 46.4 °F 93% 29.32 in 5.0 mi NW 16.1 mph 21.9 mph N/A   Overcast
5:55 PM 46.4 °F 39.0 °F 44.6 °F 93% 29.33 in 6.0 mi NW 19.6 mph - N/A   Overcast
6:15 PM 46.4 °F 38.1 °F 42.8 °F 87% 29.32 in 9.0 mi NW 24.2 mph 31.1 mph N/A   Overcast
6:35 PM 46.4 °F 39.5 °F 42.8 °F 87% 29.32 in 10.0 mi NNW 17.3 mph 28.8 mph N/A   Overcast
6:55 PM 44.6 °F 36.6 °F 42.8 °F 93% 29.33 in 10.0 mi NW 19.6 mph 26.5 mph N/A   Overcast
7:15 PM 44.6 °F 36.4 °F 41.0 °F 87% 29.33 in 7.0 mi NNW 20.7 mph 29.9 mph N/A   Overcast
7:35 PM 42.8 °F 32.7 °F 41.0 °F 93% 29.33 in 4.0 mi NNW 27.6 mph - N/A   Overcast
7:55 PM 42.8 °F 33.3 °F 41.0 °F 93% 29.33 in 4.0 mi NNW 24.2 mph - N/A   Overcast
8:15 PM 42.8 °F 33.3 °F 41.0 °F 93% 29.34 in 3.0 mi NNW 24.2 mph 34.5 mph N/A   Overcast
8:35 PM 41.0 °F 30.0 °F 37.4 °F 87% 29.33 in 4.0 mi NNW 28.8 mph 38.0 mph N/A Rain Light Rain
8:55 PM 39.2 °F 27.4 °F 35.6 °F 87% 29.33 in 5.0 mi NNW 29.9 mph 46.0 mph N/A Rain Light Rain
9:15 PM 39.2 °F 29.0 °F 35.6 °F 87% 29.34 in 6.0 mi NW 21.9 mph 34.5 mph N/A Rain Light Rain
9:35 PM 37.4 °F 26.1 °F 33.8 °F 87% 29.35 in 4.0 mi NNW 24.2 mph 39.1 mph N/A Rain Light Rain
9:55 PM 37.4 °F 26.9 °F 33.8 °F 87% 29.35 in 6.0 mi NW 20.7 mph 28.8 mph 0.01 in Rain Light Rain
10:15 PM 37.4 °F 28.2 °F 33.8 °F 87% 29.35 in 9.0 mi NW 16.1 mph 23.0 mph N/A   Overcast
10:35 PM 37.4 °F 26.1 °F 33.8 °F 87% 29.34 in 10.0 mi NW 24.2 mph 34.5 mph N/A   Overcast
10:55 PM 37.4 °F 26.6 °F 32.0 °F 81% 29.34 in 10.0 mi NW 21.9 mph 28.8 mph N/A   Overcast
11:15 PM 35.6 °F 25.5 °F 32.0 °F 87% 29.34 in 8.0 mi NW 17.3 mph 25.3 mph N/A   Overcast
11:35 PM 35.6 °F 25.5 °F 32.0 °F 87% 29.35 in 5.0 mi NW 17.3 mph 25.3 mph N/A Rain Light Rain
11:55 PM 33.8 °F 21.6 °F 32.0 °F 93% 29.34 in 2.0 mi NW 23.0 mph 31.1 mph 0.01 in Snow Light Snow